Location: *
(49.6619°S, 177.4603°W)
Time: 00:34:34
(UTC+00:00)

ATLAS 2AS CENTAUR R/B - Pass Details

Date: 31 January 2023
Orbit: 986 x 1226 km, 63.7° (Epoch: 31 January)

Event Time Altitude Azimuth Distance (km) Brightness Sun altitude
Exits shadow 10:27:14 31° 2° (N) 1,693 3.2 -19.7°
Maximum altitude 10:30:04 50° 59° (ENE) 1,276 2.8 -19.8°
Drops below altitude 10° 10:36:34 10° 132° (SE) 2,890 5.2 -20.3°
Sets 10:39:20 0° 136° (SE) 3,883 6.0 -20.4°
